SL-19 DEB, 23490

Orbit data source: Space-Track

SL-19 DEB, 23490 is space debris in LEO originally from a launch on Mon, 26 Dec 1994 UTC launched from the Tyuratam Missile And Space Complex (TTMTR). Debris objects in space refer to the collection of defunct objects orbiting the Earth. Examples of debris include non-operational satellites, rocket bodies, and fragments generated from explosions, collisions, or faulty payload assembly.

Loading next visibility...
Identifier
23490, 1994-085N
Orbit
LEO
Country
Flag of CISCIS
Related business
Manufacturer
Unknown
Mission
Spacecraft
Bus & Motor
Unknown
Mass
Unknown
Launch date (UTC)
1994-12-26 (31 years ago)
Launch vehicle
Unknown
Launch site
Tyuratam Missile And Space Complex (TTMTR)
Object type
Payload
Rocket body
Debris
Shape & HBR
Unknown shape, 0.2 m
Radar Cross Section
Medium (>0.1 m² and <1 m²)

Expand to show TLE details & history
Last TLE update: 16 hours ago

TLE from 16 hours ago
0 SL-19 DEB
1 23490U 94085N   25309.72454309 -.00000034  00000-0  24008-3 0  9992
2 23490  64.8259 220.5856 0124321  43.5241 341.2457 11.20506422262777
Epoch: 2025-11-05T17:23Z
TLE epoch observation values (Epoch: 2025-11-05T17:23:20.522Z)
Latitude
21.89706°
Longitude
-74.60485°
Altitude
1,959.957 km
Speed
6.958 km/s
True Right ascension
15h 25m 41s
True Declination
21° 47' 44"
Sunlit
Object was in daylight at epoch
Visualization orbit readout
Latitude
Unknown
Longitude
Unknown
Altitude
Unknown
Speed
Unknown
Apparent Right ascension
Unknown
Apparent Declination
Unknown
Sunlit
N/A
Visualization observer readout
Local Sidereal Time
05:44:16
Azimuth
Unknown
Elevation
Unknown
Doppler factor
Unknown
Orbital elements
Apogee altitude
2,161.321 km
Perigee altitude
1,951.602 km
Semi-major axis
8,434.599 km
Eccentricity
0.01243
Inclination
64.8259°
RAAN
220.5856°
Arg. of periapsis
43.5241°
True anomaly
340.78084°
Mean anomaly
341.2457°
Eccentric anomaly
341.01396°
Mean motion
2.80186 °/min
Orbital period
128.49 mins
BSTAR
0.00024008
Loading maneuver chart data...
Computing Atmospheric mass density...
Loading historical data...
Loading historical data...
Loading historical data...
Loading historical data...
Loading historical data...
Loading historical data...
Loading historical data...

Documentation

Showing up to 5 results
|